Location: Newark
(7.0858°N, 171.3717°E)
Time: 12:27:09
(UTC+00:00)

Vanguard 1 Rocket - Pass Details

Date: 03 December 2020
Orbit: 655 x 4222 km, 34.3° (Epoch: 23 January)

Event Time Altitude Azimuth Distance (km) Brightness Sun altitude
Exits shadow 17:03:24 16° 321° (NW) 6,286 11.1 -21.4°
Maximum altitude 17:17:00 30° 8° (N) 4,221 10.6 -18.3°
Drops below altitude 10° 17:27:59 10° 65° (ENE) 4,379 11.5 -15.7°
Sets 17:31:22 0° 77° (ENE) 4,936 12.1 -15.0°
